Regional Weather Roundup
Issued by NWS

Home | Current Version | Previous Version | Text Only | Print | Product List | Glossary Off
Versions: 1 2 3 4 5 6 7 8 9 10 11 12 13 14 15 16 17 18 19 20 21 22 23 24 25 26 27 28 29 30 31 32 33 34 35 36 37 38 39 40 41 42 43 44 45 46 47 48 49 50

000
ASUS43 KDMX 272007
RWRIA

WEATHER ROUNDUP FOR IOWA
NATIONAL WEATHER SERVICE DES MOINES IA
200 PM CST SAT DEC 27 2014

NOTE: "FAIR" INDICATES FEW OR NO CLOUDS BELOW 12,000 FEET WITH NO
SIGNIFICANT WEATHER AND/OR OBSTRUCTIONS TO VISIBILITY.

* - THESE STATIONS ARE NOT NWS STATIONS...THUS NOT UNDER NWS
QUALITY CONTROL.  THEY ALSO DO NOT REPORT WEATHER SUCH
AS PRECIPITATION OR FOG.

IAZ001>003-012>014-020>022-031>034-043>046-272100-
   NORTHWEST IOWA

CITY           SKY/WX    TMP DP  RH WIND       PRES   REMARKS
CARROLL *      PTSUNNY   21  18  86 NW13      30.18R WCI   9
CHEROKEE *     PTSUNNY   19  16  86 W8        30.18F WCI   9
DENISON *      PTSUNNY   21  18  86 NW8       30.17S WCI  12
LE MARS *      SUNNY     18  12  79 W8        30.19F WCI   7
ORANGE CITY *  SUNNY     18  10  73 W9        30.16F WCI   6
SHELDON *      SUNNY     18  12  79 W12       30.14F WCI   5
SIOUX CITY     SUNNY     21  12  68 NW8       30.21F WCI  11
SPENCER        SUNNY     20  12  71 W13       30.15F WCI   7
STORM LAKE *   PTSUNNY   18  14  86 NW15      30.16S WCI   3
$$

IAZ055>058-069>071-079>083-090>094-272100-
   SOUTHWEST IOWA

CITY           SKY/WX    TMP DP  RH WIND       PRES   REMARKS
ATLANTIC *     PTSUNNY   27  19  74 W9        30.20S WCI  17
AUDUBON *      PTSUNNY   28  19  69 W7        30.18S WCI  21
CLARINDA *     CLOUDY    27  21  80 NW9G18    30.23F WCI  17
COUNCIL BLFS * SUNNY     27  21  80 W10       30.19F WCI  17
CRESTON *      CLOUDY    27  21  80 NW12G20   30.18F WCI  16
HARLAN  *      PTSUNNY   25  21  86 W12       30.23S WCI  14
LAMONI         CLOUDY    28  21  75 NW15      30.18R WCI  16
RED OAK *      CLOUDY    27  19  74 NW12      30.22F WCI  16
SHENANDOAH *   CLOUDY    28  21  74 NW8       30.23F WCI  20
$$

IAZ047>049-059>061-072>074-084-272100-
   CENTRAL IOWA

CITY           SKY/WX    TMP DP  RH WIND       PRES   REMARKS
AMES           PTSUNNY   26  19  74 W15       30.16S WCI  14
ANKENY *       CLOUDY    28  21  74 NW12G18   30.17F WCI  18
CHARITON *     CLOUDY    30  23  74 W16G22    30.16S WCI  19
DES MOINES     CLOUDY    30  21  69 NW13      30.18R WCI  20
GRINNELL*      CLOUDY    28  25  86 NW15      30.14S WCI  17
KNOXVILLE *    CLOUDY    28  21  74 NW17      30.15S WCI  16
MARSHALLTOWN   CLOUDY    26  21  81 NW16      30.13S WCI  14
PELLA *        CLOUDY    30  24  78 NW13G20   30.17S WCI  20
PERRY *        PTSUNNY   28  23  80 W14G20    30.19R WCI  17
$$

IAZ004>006-015-016-023>025-035-036-272100-
   NORTH CENTRAL IOWA

CITY           SKY/WX    TMP DP  RH WIND       PRES   REMARKS
ALGONA *       SUNNY     21  12  68 NW10G17   30.14S WCI  10
CLARION *      MOSUNNY   21  16  79 W17       30.14S WCI   7
ESTHERVILLE    SUNNY     19  11  70 NW13      30.12F WCI   6
FORT DODGE *   SUNNY     21  12  68 W12       30.16F WCI   9
FOREST CITY *  PTSUNNY   21  14  73 W12       30.12S WCI   9
IOWA FALLS *     N/A     23  19  86 NW16      30.15R WCI  10
$$

IAZ007>011-017>019-026>030-037>042-050>054-066-272100-
   NORTHEAST IOWA

CITY           SKY/WX    TMP DP  RH WIND       PRES   REMARKS
CEDAR RAPIDS   CLOUDY    31  26  82 W22G28    30.10R WCI  18
CHARLES CITY * CLOUDY    23  21  93 W17       30.10S WCI   9
CLINTON *      CLOUDY    32  27  80 W21G28    30.11R WCI  20
DECORAH *      CLOUDY    25  23  93 W15G21    30.05R WCI  12
DUBUQUE        CLOUDY    30  25  81 W20G28    30.05R WCI  17
MONTICELLO *   CLOUDY    32  28  86 NW18      30.07S WCI  20
OELWEIN *      CLOUDY    28  25  86 W17G24    30.09R WCI  16
WATERLOO       CLOUDY    25  21  85 NW12G21   30.11R WCI  14
$$

IAZ064-065-067-068-078-272100-
   EAST CENTRAL IOWA

CITY           SKY/WX    TMP DP  RH WIND       PRES   REMARKS
DAVENPORT      CLOUDY    31  24  75 NW23      30.10R WCI  18
IOWA CITY      CLOUDY    32  25  75 W14       30.13R WCI  22
MT. PLEASANT * CLOUDY    32  25  74 W12       30.15S WCI  23
MUSCATINE *    CLOUDY    34  27  75 W14       30.14R WCI  24
QUAD CITIES    CLOUDY    33  26  75 W18G25    30.10R WCI  22
$$

IAZ062-063-075>077-085>089-095>099-272100-
   SOUTHEAST IOWA

CITY           SKY/WX    TMP DP  RH WIND       PRES   REMARKS
BURLINGTON     CLOUDY    34  27  75 NW13      30.14R WCI  25
FAIRFIELD *    CLOUDY    32  25  74 NW17      30.15R WCI  21
FORT MADISON * CLOUDY    36  28  75 NW15      30.14S WCI  26
KEOKUK *       CLOUDY    36  27  69 NW10G17   30.14S WCI  28
OSKALOOSA *    CLOUDY    30  25  80 NW15      30.16R WCI  19
CENTERVILLE *  CLOUDY    32  25  74 NW12      30.17S WCI  23
OTTUMWA        CLOUDY    31  23  72 NW14      30.15R WCI  21
WASHINGTON *   CLOUDY    32  28  86 NW18      30.14R WCI  20
$$

ABBREVIATIONS USED IN REMARKS
   TC - TEMPERATURES IN CELSIUS
  WCI - WIND CHILL INDEX
   HX - HEAT INDEX
  VSB - VISIBILITY
$$




USA.gov is the U.S. government's official web portal to all federal, state and local government web resources and services.